Regional Weather Roundup
Issued by NWS

Home | Current Version | Previous Version | Text Only | Print | Product List | Glossary On
Versions: 1 2 3 4 5 6 7 8 9 10 11 12 13 14 15 16 17 18 19 20 21 22 23 24 25 26 27 28 29 30 31 32 33 34 35 36 37 38 39 40 41 42 43 44 45 46 47 48 49 50
006
ASUS44 KLIX 161005
RWRLA
LOUISIANA WEATHER ROUNDUP
NATIONAL WEATHER SERVICE NEW ORLEANS LA
500 AM CDT WED APR 16 2014

NOTE: "FAIR" INDICATES FEW OR NO CLOUDS BELOW 12,000 FEET WITH NO
      SIGNIFICANT WEATHER AND/OR OBSTRUCTIONS TO VISIBILITY.
      SKY/WX - SKY CONDITION AND SIGNIFICANT WEATHER.
      TMP - AIR TEMPERATURE.    DP   - DEWPOINT TEMPERATURE.
      RH  - RELATIVE HUMIDITY.  PRES - PRESSURE.
      HX  - HEAT INDEX.         WCI  - WIND CHILL INDEX.

*  THESE STATIONS ARE NOT NWS OR FAA STATIONS AND ARE NOT UNDER
   NWS QUALITY CONTROL.

LAZ040-048-061>063-065-066-069-161100-
SOUTHEAST LOUISIANA

CITY           SKY/WX    TMP DP  RH WIND       PRES   REMARKS
N.O. AUDUBON     N/A     47  32  56 MISG        N/A
N.O. INTL ARPT CLEAR     48  34  58 E12       30.18R
N.O. LAKEFRONT CLEAR     49  36  61 NE22      30.18S
N.O. DOWNTOWN* FAIR      48  28  46 N5        30.18R
SLIDELL        CLEAR     39  35  86 N3        30.18S
BATON ROUGE    CLEAR     39  32  76 NE6       30.19S WCI  35
BOOTHVILLE     CLEAR     54  38  54 NE13G22   30.16R
BELLE CHASSE   CLEAR     46  32  58 NE7       30.17R
BOGALUSA*        N/A     37  33  85 NE3       30.20F
GALLIANO*      SUNNY     49  40  69 N7        30.17S
NEW ROADS*     FAIR      40  31  70 NE7       30.20R
GONZALES*      FAIR      41  35  79 CALM      30.20R
HAMMOND*       CLEAR     39  32  75 CALM      30.21R
HOUMA*           N/A     40  37  87 N3        30.18S
PORT FOURCHON* PTSUNNY   50  43  76 N8        30.18R

$$

LAZ041-044-053-054-161100-
SOUTHWEST LOUISIANA

CITY           SKY/WX    TMP DP  RH WIND       PRES   REMARKS
LAKE CHARLES   CLEAR     38  36  92 CALM      30.19R
LAFAYETTE      CLEAR     41  36  82 E3        30.19S
PATTERSON      CLEAR     43  34  70 NE8       30.21S
SALT POINT       N/A     45  38  76 NE3       30.18S
NEW IBERIA     CLEAR     42  34  73 E6        30.20R
CHENAULT AIRPK NOT AVBL

$$

LAZ027-028-161100-
CENTRAL LOUISIANA

CITY           SKY/WX    TMP DP  RH WIND       PRES   REMARKS
FORT POLK      CLEAR     40  34  79 E5        30.18R
ALEXANDRIA INT CLEAR     38  35  89 CALM      30.18S
ALEXANDRIA     CLEAR     35  33  92 CALM      30.19S

$$

LAZ001-002-161100-
NORTHWEST LOUISIANA

CITY           SKY/WX    TMP DP  RH WIND       PRES   REMARKS
SHREVEPORT     CLEAR     41  33  73 SE6       30.18S
BARKSDALE AFB  CLEAR     38  34  84 SE2       30.20R
DTN SHREVEPORT CLEAR     40  33  76 SE6       30.19R

$$

LAZ014-016-161100-
NORTHEAST LOUISIANA

CITY           SKY/WX    TMP DP  RH WIND       PRES   REMARKS
MONROE         CLEAR     38  34  85 CALM      30.22R
TALLULAH       CLEAR     43  31  62 E9        30.21S

$$




USA.gov is the U.S. government's official web portal to all federal, state and local government web resources and services.